Location: Asheville, NC
(35.6000°N, 82.5500°W)
Time: 08:57:03
(UTC-05:00)

Vanguard 2 Rocket - Pass Details

Date: 11 December 2017
Orbit: 556 x 3326 km, 32.9° (Epoch: 17 January)

Event Time Altitude Azimuth Distance (km) Brightness Sun altitude
Rises 19:24:06 0° 229° (SW) 4,863 11.6 -25.0°
Reaches altitude 10° 19:26:52 10° 225° (SW) 4,183 11.0 -25.6°
Maximum altitude 19:38:47 57° 151° (SSE) 2,946 9.2 -27.9°
Enters shadow 19:45:41 40° 98° (E) 3,857 9.5 -29.3°
